パンスターズ彗星

C/2015 R3 ( PanSTARRS )

English version
Home page
Updated on November 13, 2016

---------------------------------------------------------------------

・ プロフィール

発見日 2015年9月12日
発見光度 22.3等
発見者 Pan-STARRS 1 telescope (Haleakala)

・ 写真集

・ 軌道要素

Epoch 2014 Jan. 23.0 TT = JDT 2456680.5
T 2014 Feb. 11.75592 TT                                 MPCW
q   4.9031334            (2000.0)            P               Q
z  +0.0003207      Peri.  272.00618     +0.09433319     +0.80176569
 +/-0.0000094      Node    36.43061     +0.33187932     +0.53355456
e   0.9984276      Incl.   83.59883     -0.93859329     +0.26924211
From 31 observations 2015 Sept. 12-2016 Sept. 28, mean residual 0".5.

・ 光度変化

        m1 = 9.0 + 5 logΔ + 10.0 log r

---------------------------------------------------------------------

軌道要素はM.P.E.C. 2016-U66に掲載されたものです。
光度グラフはComet for Windowsで作成したものです。

---------------------------------------------------------------------

Copyright(C) Seiichi Yoshida (comet@aerith.net). All rights reserved.